SL-14 DEB *, 47086

Orbit data source: Space-Track

SL-14 DEB *, 47086 is space debris in LEO originally from a launch on Thu, 15 Aug 1991 UTC launched from the Plesetsk Missile And Space Complex (PKMTR). Debris objects in space refer to the collection of defunct objects orbiting the Earth. Examples of debris include non-operational satellites, rocket bodies, and fragments generated from explosions, collisions, or faulty payload assembly.

Loading next visibility...
Identifier
47086, 1991-056DL
Orbit
LEO
Country
Flag of CISCIS
Related business
Manufacturer
Unknown
Mission
Spacecraft
Bus & Motor
Unknown
Mass
Unknown
Launch date (UTC)
1991-08-15 (35 years ago)
Launch vehicle
Unknown
Launch site
Plesetsk Missile And Space Complex (PKMTR)
Object type
Payload
Rocket body
Debris
Shape & HBR
Unknown shape, 0.1 m
Radar Cross Section
Small (<0.1 m²)

Expand to show TLE details & history
Last TLE update: 1 day ago

TLE from 1 day ago
0 SL-14 DEB *
1 47086U 91056DL  26174.41581353  .00004131  00000-0  18222-2 0  9992
2 47086  82.5505 231.8116 0006887   4.6863 355.4382 14.23152013291026
Epoch: 2026-06-23T09:58Z
TLE epoch observation values (Epoch: 2026-06-23T09:58:46.288Z)
Latitude
-0.00006°
Longitude
170.53103°
Altitude
812.73 km
Speed
7.449 km/s
True Right ascension
15h 27m 14s
True Declination
0° 00' 00"
Sunlit
Object was in full shadow at epoch
Visualization orbit readout
Latitude
Unknown
Longitude
Unknown
Altitude
Unknown
Speed
Unknown
Apparent Right ascension
Unknown
Apparent Declination
Unknown
Sunlit
N/A
Visualization observer readout
Local Sidereal Time
20:47:04
Azimuth
Unknown
Elevation
Unknown
Doppler factor
Unknown
Orbital elements
Apogee altitude
816.763 km
Perigee altitude
806.859 km
Semi-major axis
7,189.948 km
Eccentricity
0.00069
Inclination
82.5505°
RAAN
231.8116°
Arg. of periapsis
4.6863°
True anomaly
355.43192°
Mean anomaly
355.4382°
Eccentric anomaly
355.43506°
Mean motion
3.56004 °/min
Orbital period
101.12 mins
BSTAR
0.0018222
Loading maneuver chart data...
Computing Atmospheric mass density...
Loading historical data...
Loading historical data...
Loading historical data...
Loading historical data...
Loading historical data...
Loading historical data...
Loading historical data...

Documentation

Showing up to 5 results
|